KB1WCR Weather Reports


time (UTC)temp
F
wind
direction
speed
knots
gust
knots
rain 1hr
in
rain 24hr
in
rain mn
in
humidity
%
barometer
mb
20260902040220 63 299 0.0 0.0 0.00 0.00 0.00 99 1020.4
20260902035718 63 306 0.0 0.0 0.00 0.00 0.00 99 1020.3
20260902035214 63 322 0.0 0.0 0.00 0.00 0.00 99 1020.5
20260902034713 63 308 0.0 0.0 0.00 0.00 0.00 99 1020.4
20260902034213 63 304 0.0 0.0 0.00 0.00 0.00 99 1020.5
20260902033711 63 333 0.0 0.0 0.00 0.00 0.00 99 1020.4
20260902033206 63 306 0.0 0.0 0.00 0.00 0.00 99 1020.2
20260902032705 63 299 0.0 0.0 0.00 0.00 0.00 99 1020.3
20260902032200 63 296 0.0 0.0 0.00 0.00 0.00 99 1020.3
20260902031654 63 296 0.0 0.0 0.00 0.00 0.00 99 1020.2
20260902031150 63 298 0.0 0.0 0.00 0.00 0.00 99 1020.1
20260902030646 63 308 0.0 0.0 0.00 0.00 0.00 99 1019.9
20260902030145 63 347 0.9 0.9 0.00 0.00 0.00 99 1019.9
20260902025644 63 344 0.0 0.0 0.00 0.00 0.00 99 1019.8
20260902025140 63 317 0.0 0.9 0.00 0.00 0.00 99 1019.7
20260902024635 63 312 0.0 0.0 0.00 0.00 0.00 99 1019.8
20260902024130 63 313 0.0 0.0 0.00 0.00 0.00 99 1019.9
20260902023626 63 301 0.0 0.0 0.00 0.00 0.00 99 1020.0
20260902023120 63 298 0.0 0.0 0.00 0.00 0.00 99 1019.9
20260902022619 63 304 0.0 0.0 0.00 0.00 0.00 99 1019.8
20260902022116 63 296 0.0 0.0 0.00 0.00 0.00 99 1020.0
20260902021611 63 303 0.0 0.0 0.00 0.00 0.00 99 1019.9
20260902021106 63 274 0.0 0.0 0.00 0.00 0.00 99 1020.0
20260902020602 63 329 0.0 0.0 0.00 0.00 0.00 99 1019.9
20260902020057 63 313 0.0 0.0 0.00 0.00 0.00 99 1019.9
20260902015553 63 356 0.0 0.0 0.00 0.00 0.00 99 1019.8
20260902015048 63 311 0.0 0.0 0.00 0.00 0.00 99 1020.0
20260902014544 63 330 0.0 0.0 0.00 0.00 0.00 99 1020.0
20260902014039 63 304 0.0 0.0 0.00 0.00 0.00 99 1020.2
20260902013539 63 318 0.0 0.0 0.00 0.00 0.00 99 1020.2
20260902013035 63 312 0.0 0.0 0.00 0.00 0.00 99 1020.1
20260902012530 63 305 0.0 0.0 0.00 0.00 0.00 99 1020.1
20260902012025 63 319 0.0 0.0 0.00 0.00 0.00 99 1020.1
20260902011520 63 322 0.0 0.0 0.00 0.00 0.00 99 1020.1
20260902011015 63 317 0.0 0.0 0.00 0.00 0.00 99 1020.0
20260902010515 63 292 0.0 0.0 0.00 0.00 0.00 99 1020.0
20260902010010 63 307 0.0 0.0 0.00 0.00 0.00 99 1019.9
20260902005508 63 269 0.0 0.0 0.00 0.00 0.00 99 1019.7
20260902005005 63 194 0.0 0.9 0.00 0.00 0.00 99 1019.8
20260902004504 63 312 0.0 0.0 0.00 0.00 0.00 99 1019.7
20260902003959 63 253 0.0 0.0 0.00 0.00 0.00 99 1020.0
20260902003454 63 301 0.0 0.0 0.00 0.00 0.00 99 1019.7
20260902002950 63 289 0.0 0.0 0.00 0.00 0.00 99 1019.5
20260902002445 63 311 0.0 0.0 0.00 0.00 0.00 99 1019.5
20260902001944 63 310 0.0 0.0 0.00 0.00 0.00 99 1019.4
20260902001439 63 327 0.9 0.9 0.00 0.00 0.00 99 1019.6
20260902000934 63 325 0.0 0.0 0.00 0.00 0.00 99 1019.4
20260902000429 64 3 0.9 0.9 0.00 0.00 0.00 99 1019.4
20260901235924 64 34 0.0 0.9 0.00 0.00 0.00 99 1019.4
20260901235419 64 317 0.0 0.0 0.00 0.00 0.00 99 1019.3
20260901234914 64 322 0.0 0.0 0.00 0.00 0.00 99 1019.4
20260901234408 64 314 0.0 0.0 0.00 0.00 0.00 99 1019.3
20260901233903 64 315 0.0 0.0 0.00 0.00 0.00 99 1019.5
20260901233358 64 19 0.0 0.0 0.00 0.00 0.00 99 1019.4
20260901232855 64 314 0.0 0.0 0.00 0.00 0.00 99 1019.3
20260901232349 64 317 0.0 0.9 0.00 0.00 0.00 99 1019.5
20260901231845 64 348 0.9 0.9 0.00 0.00 0.00 99 1019.5
20260901231341 64 337 0.9 1.7 0.00 0.00 0.00 99 1019.3
20260901230837 64 289 0.9 0.9 0.00 0.00 0.00 99 1019.3
20260901230336 64 292 1.7 1.7 0.00 0.00 0.00 99 1019.2
20260901225832 64 300 0.9 0.9 0.00 0.00 0.00 99 1019.5
20260901225331 64 46 0.9 0.9 0.00 0.00 0.00 99 1019.1
20260901224826 65 46 2.6 3.5 0.00 0.00 0.00 98 1019.0
20260901224323 65 36 0.9 1.7 0.00 0.00 0.00 98 1019.1
20260901223819 65 331 0.0 0.9 0.00 0.00 0.00 97 1019.1
20260901223314 66 338 0.9 1.7 0.00 0.00 0.00 97 1019.0
20260901222810 66 5 0.9 0.9 0.00 0.00 0.00 97 1019.0
20260901222306 66 194 0.9 0.9 0.00 0.00 0.00 97 1018.8
20260901221802 66 216 1.7 2.6 0.00 0.00 0.00 96 1019.0
20260901221256 66 199 2.6 3.5 0.00 0.00 0.00 95 1019.0
20260901220750 66 0 0.9 0.9 0.00 0.00 0.00 95 1019.0
20260901220244 66 112 1.7 2.6 0.00 0.00 0.00 94 1019.0
20260901215743 67 296 0.0 0.9 0.00 0.00 0.00 94 1019.0
20260901215237 67 281 1.7 1.7 0.00 0.00 0.00 93 1019.2
20260901214736 67 355 2.6 2.6 0.00 0.00 0.00 93 1018.9
20260901214229 67 12 1.7 2.6 0.00 0.00 0.00 92 1019.0
20260901213729 67 314 0.9 0.9 0.00 0.00 0.00 93 1018.8
20260901213229 67 119 0.9 1.7 0.00 0.00 0.00 93 1018.7
20260901212729 66 1 1.7 2.6 0.00 0.00 0.00 93 1018.7
20260901212225 67 101 2.6 2.6 0.00 0.00 0.00 92 1018.6
20260901211720 67 25 0.9 0.9 0.00 0.00 0.00 92 1018.6
20260901211216 67 356 1.7 2.6 0.00 0.00 0.00 92 1018.6
20260901210712 67 30 1.7 2.6 0.00 0.00 0.00 92 1018.5
20260901210208 68 76 3.5 5.2 0.00 0.00 0.00 91 1018.5
20260901205703 68 25 1.7 2.6 0.00 0.00 0.00 90 1018.3
20260901205158 68 199 0.9 0.9 0.00 0.00 0.00 91 1018.5
20260901204653 68 92 1.7 2.6 0.00 0.00 0.00 90 1018.5
20260901204149 68 71 1.7 2.6 0.00 0.00 0.00 90 1018.5
20260901203649 68 278 1.7 1.7 0.00 0.00 0.00 90 1018.3
20260901203144 68 28 1.7 1.7 0.00 0.00 0.00 90 1018.4
20260901202643 69 21 2.6 2.6 0.00 0.00 0.00 89 1018.2
20260901202139 69 105 1.7 1.7 0.00 0.00 0.00 89 1018.2
20260901201635 69 333 2.6 2.6 0.00 0.00 0.00 88 1018.1
20260901201133 70 66 2.6 5.2 0.00 0.00 0.00 87 1018.1
20260901200627 71 10 4.3 5.2 0.00 0.00 0.00 86 1018.1
20260901200123 70 224 0.0 0.9 0.00 0.00 0.00 87 1018.3
20260901195620 71 314 1.7 1.7 0.00 0.00 0.00 86 1018.1
20260901195115 70 49 3.5 6.1 0.00 0.00 0.00 88 1018.2
20260901194610 69 345 0.0 0.9 0.00 0.00 0.00 86 1018.2
20260901194105 69 282 0.0 0.9 0.00 0.00 0.00 87 1018.1
20260901193601 69 0 2.6 3.5 0.00 0.00 0.00 86 1018.3
20260901193055 69 337 0.9 0.9 0.00 0.00 0.00 86 1018.1
20260901192550 70 198 1.7 1.7 0.00 0.00 0.00 84 1018.3
20260901192045 70 50 0.9 0.9 0.00 0.00 0.00 82 1018.3
20260901191542 70 189 2.6 2.6 0.00 0.00 0.00 81 1018.3
20260901191037 71 54 0.9 0.9 0.00 0.00 0.00 80 1018.4
20260901190532 71 286 0.9 1.7 0.00 0.00 0.00 79 1018.3
20260901190031 72 289 0.9 0.9 0.00 0.00 0.00 77 1018.5
20260901185525 72 324 1.7 2.6 0.00 0.00 0.00 76 1018.3
20260901185024 73 188 0.9 1.7 0.00 0.00 0.00 75 1018.2
20260901184519 73 18 1.7 2.6 0.00 0.00 0.00 73 1018.2
20260901184015 74 258 1.7 2.6 0.00 0.00 0.00 71 1018.3
20260901183509 74 148 2.6 3.5 0.00 0.00 0.00 67 1018.3
20260901183005 76 51 1.7 3.5 0.00 0.00 0.00 67 1018.1
20260901182501 75 248 1.7 3.5 0.00 0.00 0.00 67 1018.0
20260901182000 76 304 0.0 0.0 0.00 0.00 0.00 67 1018.1
20260901181455 74 324 0.0 0.0 0.00 0.00 0.00 67 1018.0
20260901180954 73 352 0.9 0.9 0.00 0.00 0.00 63 1018.0
20260901180453 74 337 1.7 2.6 0.00 0.00 0.00 66 1018.0
20260901175951 74 308 0.0 0.0 0.00 0.00 0.00 64 1018.1
20260901175446 75 343 2.6 2.6 0.00 0.00 0.00 61 1017.8
20260901174942 74 245 0.9 0.9 0.00 0.00 0.00 62 1018.0
20260901174437 74 227 0.9 0.9 0.00 0.00 0.00 63 1018.1
20260901173933 73 330 0.9 0.9 0.00 0.00 0.00 67 1017.8
20260901173428 73 350 0.0 0.9 0.00 0.00 0.00 65 1018.3
20260901172924 73 101 0.0 0.9 0.00 0.00 0.00 66 1018.0
20260901172419 74 56 0.9 1.7 0.00 0.00 0.00 64 1018.1
20260901171917 75 172 0.0 0.9 0.00 0.00 0.00 64 1017.9
20260901171416 75 34 1.7 1.7 0.00 0.00 0.00 66 1018.0
20260901170914 75 349 1.7 1.7 0.00 0.00 0.00 62 1017.9
20260901170404 74 11 0.0 0.9 0.00 0.00 0.00 65 1018.1
20260901165903 73 324 0.0 0.0 0.00 0.00 0.00 65 1018.1
20260901165358 74 142 0.9 1.7 0.00 0.00 0.00 66 1018.2
20260901164855 73 268 0.9 0.9 0.00 0.00 0.00 66 1018.1
20260901164350 72 48 0.9 1.7 0.00 0.00 0.00 68 1018.3
20260901163849 72 16 1.7 1.7 0.00 0.00 0.00 68 1018.3
20260901163344 71 62 1.7 3.5 0.00 0.00 0.00 69 1018.2
20260901162839 71 40 1.7 2.6 0.00 0.00 0.00 70 1018.4
20260901162338 71 277 0.9 0.9 0.00 0.00 0.00 70 1018.2
20260901161832 71 348 0.0 0.0 0.00 0.00 0.00 72 1018.3
20260901161327 71 40 0.0 0.9 0.00 0.00 0.00 71 1018.3
20260901160822 71 46 1.7 1.7 0.00 0.00 0.00 70 1018.3
20260901160319 71 353 1.7 1.7 0.00 0.00 0.00 69 1018.4
20260901155817 71 25 1.7 2.6 0.00 0.00 0.00 68 1018.3
20260901155312 71 70 1.7 1.7 0.00 0.00 0.00 69 1018.4
20260901154809 71 351 0.9 0.9 0.00 0.00 0.00 70 1018.5
20260901154308 70 226 0.9 0.9 0.00 0.00 0.00 70 1018.5
20260901153803 70 90 0.9 0.9 0.00 0.00 0.00 70 1018.4
20260901153303 71 17 1.7 2.6 0.00 0.00 0.00 68 1018.5
20260901152801 71 324 0.9 0.9 0.00 0.00 0.00 71 1018.4
20260901152301 71 161 0.9 0.9 0.00 0.00 0.00 71 1018.5
20260901151756 69 302 0.0 0.0 0.00 0.00 0.00 73 1018.4
20260901151255 68 335 0.0 0.0 0.00 0.00 0.00 73 1018.2
20260901150750 68 311 0.0 0.9 0.00 0.00 0.00 75 1018.2
20260901150248 68 329 0.0 0.9 0.00 0.00 0.00 74 1018.0
20260901145746 68 156 0.9 0.9 0.00 0.00 0.00 74 1017.9
20260901145240 69 340 1.7 2.6 0.00 0.00 0.00 73 1018.0
20260901144735 69 0 0.9 1.7 0.00 0.00 0.00 75 1018.0
20260901144231 68 1 1.7 1.7 0.00 0.00 0.00 73 1018.1
20260901143727 66 298 0.9 0.9 0.00 0.00 0.00 80 1018.1
20260901143222 66 348 1.7 1.7 0.00 0.00 0.00 77 1018.1
20260901142718 66 54 1.7 2.6 0.00 0.00 0.00 78 1018.2
20260901142217 66 42 1.7 2.6 0.00 0.00 0.00 76 1018.5
20260901141712 65 26 0.9 1.7 0.00 0.00 0.00 79 1018.4
20260901141207 65 77 1.7 3.5 0.00 0.00 0.00 79 1018.5
20260901140706 64 318 0.0 0.0 0.00 0.00 0.00 82 1018.8
20260901140204 64 27 0.0 0.0 0.00 0.00 0.00 83 1018.9
20260901135659 63 310 0.0 0.0 0.00 0.00 0.00 83 1018.7
20260901135154 62 94 0.9 0.9 0.00 0.00 0.00 82 1018.8
20260901134650 62 337 0.0 0.0 0.00 0.00 0.00 85 1018.8
20260901134145 62 313 0.0 0.0 0.00 0.00 0.00 86 1018.6
20260901133644 61 315 0.0 0.0 0.00 0.00 0.00 86 1018.7
20260901133143 61 35 0.0 0.9 0.00 0.00 0.00 86 1018.8
20260901132637 61 304 0.0 0.0 0.00 0.00 0.00 87 1018.9
20260901132132 60 311 0.0 0.0 0.00 0.00 0.00 89 1018.8
20260901131631 60 304 0.0 0.0 0.00 0.00 0.00 88 1018.8
20260901131126 60 296 0.9 0.9 0.00 0.00 0.00 89 1018.9
20260901130621 59 317 0.9 0.9 0.00 0.00 0.00 90 1018.8
20260901130119 59 322 0.0 0.0 0.00 0.00 0.00 90 1018.8
20260901125617 59 331 0.0 0.0 0.00 0.00 0.00 91 1018.6
20260901125108 59 321 0.0 0.0 0.00 0.00 0.00 92 1018.8
20260901124607 58 1 0.9 0.9 0.00 0.00 0.00 92 1019.0
20260901124102 58 324 0.0 0.9 0.00 0.00 0.00 92 1018.9
20260901123557 58 8 1.7 1.7 0.00 0.00 0.00 93 1019.1
20260901123056 58 317 0.0 0.0 0.00 0.00 0.00 94 1018.9
20260901122555 57 301 0.0 0.0 0.00 0.00 0.00 99 1018.8
20260901122055 56 292 0.0 0.0 0.00 0.00 0.00 99 1018.6
20260901121550 56 321 0.0 0.0 0.00 0.00 0.00 99 1018.8
20260901121045 56 288 0.0 0.0 0.00 0.00 0.00 99 1018.6
20260901120545 56 296 0.0 0.0 0.00 0.00 0.00 99 1018.7
20260901120041 56 296 0.0 0.0 0.00 0.00 0.00 99 1018.5
20260901115536 55 302 0.0 0.0 0.00 0.00 0.00 99 1018.7
20260901115033 55 302 0.0 0.0 0.00 0.00 0.00 99 1018.6
20260901114528 55 301 0.0 0.0 0.00 0.00 0.00 99 1018.5
20260901114026 55 310 0.0 0.0 0.00 0.00 0.00 99 1018.6
20260901113525 54 312 0.0 0.0 0.00 0.00 0.00 99 1018.5
20260901113016 54 307 0.0 0.0 0.00 0.00 0.00 99 1018.7
20260901112510 54 307 0.0 0.0 0.00 0.00 0.00 99 1018.4
20260901112005 53 310 0.0 0.0 0.00 0.00 0.00 99 1018.4
20260901111504 53 303 0.0 0.0 0.00 0.00 0.00 99 1018.3
20260901111003 53 303 0.0 0.0 0.00 0.00 0.00 99 1018.4
20260901110458 53 301 0.0 0.0 0.00 0.00 0.00 99 1018.3
20260901105954 53 312 0.0 0.0 0.00 0.00 0.00 99 1018.2
20260901105450 53 311 0.0 0.0 0.00 0.00 0.00 99 1018.3
20260901104950 53 311 0.0 0.0 0.00 0.00 0.00 99 1018.2
20260901104446 53 305 0.0 0.0 0.00 0.00 0.00 99 1018.3
20260901103940 52 303 0.0 0.0 0.00 0.00 0.00 99 1018.1
20260901103435 53 303 0.0 0.0 0.00 0.00 0.00 99 1017.9
20260901102930 53 302 0.0 0.0 0.00 0.00 0.00 99 1018.0
20260901102425 52 302 0.0 0.0 0.00 0.00 0.00 99 1017.8
20260901101919 51 312 0.0 0.0 0.00 0.00 0.00 99 1017.7
20260901101415 51 309 0.0 0.0 0.00 0.00 0.00 99 1017.8
20260901100914 51 312 0.0 0.0 0.00 0.00 0.00 99 1017.9
20260901100408 51 320 0.0 0.0 0.00 0.00 0.00 99 1017.8
20260901095902 51 312 0.0 0.0 0.00 0.00 0.00 99 1017.9
20260901095401 51 316 0.0 0.0 0.00 0.00 0.00 99 1017.9
20260901094854 51 308 0.0 0.0 0.00 0.00 0.00 99 1018.0
20260901094349 51 313 0.0 0.0 0.00 0.00 0.00 99 1017.9
20260901093843 51 317 0.0 0.0 0.00 0.00 0.00 99 1017.9
20260901093343 50 313 0.0 0.0 0.00 0.00 0.00 99 1017.9
20260901092839 50 316 0.0 0.0 0.00 0.00 0.00 99 1017.8
20260901092334 50 317 0.0 0.0 0.00 0.00 0.00 99 1017.8
20260901091830 50 317 0.0 0.0 0.00 0.00 0.00 99 1018.0
20260901091324 50 317 0.0 0.0 0.00 0.00 0.00 99 1018.0
20260901090819 50 317 0.0 0.0 0.00 0.00 0.00 99 1018.0
20260901090314 50 317 0.0 0.0 0.00 0.00 0.00 99 1018.0
20260901085810 50 317 0.0 0.0 0.00 0.00 0.00 99 1017.8
20260901085306 50 317 0.0 0.0 0.00 0.00 0.00 99 1017.9
20260901084802 50 317 0.0 0.0 0.00 0.00 0.00 99 1018.1
20260901084258 49 317 0.0 0.0 0.00 0.00 0.00 99 1017.9
20260901083757 50 317 0.0 0.0 0.00 0.00 0.00 99 1017.9
20260901083257 50 317 0.0 0.0 0.00 0.00 0.00 99 1017.9
20260901082755 49 317 0.0 0.0 0.00 0.00 0.00 99 1017.9
20260901082251 50 317 0.0 0.0 0.00 0.00 0.00 99 1017.8
20260901081746 50 317 0.0 0.0 0.00 0.00 0.00 99 1018.1
20260901081246 50 317 0.0 0.0 0.00 0.00 0.00 99 1018.1
20260901080741 50 317 0.0 0.0 0.00 0.00 0.00 99 1017.8
20260901080235 50 317 0.0 0.0 0.00 0.00 0.00 99 1018.0
20260901075734 50 319 0.0 0.0 0.00 0.00 0.00 99 1018.0
20260901075230 50 325 0.0 0.0 0.00 0.00 0.00 99 1018.0
20260901074724 49 326 0.0 0.0 0.00 0.00 0.00 99 1018.0
20260901074220 49 326 0.0 0.0 0.00 0.00 0.00 99 1018.0
20260901073716 50 326 0.0 0.0 0.00 0.00 0.00 99 1018.0
20260901073211 50 321 0.0 0.0 0.00 0.00 0.00 99 1018.0
20260901072706 50 316 0.0 0.0 0.00 0.00 0.00 99 1018.1
20260901072201 50 316 0.0 0.0 0.00 0.00 0.00 99 1018.2
20260901071700 50 316 0.0 0.0 0.00 0.00 0.00 99 1018.2
20260901071155 50 316 0.0 0.0 0.00 0.00 0.00 99 1018.4
20260901070649 49 316 0.0 0.0 0.00 0.00 0.00 99 1018.2
20260901070144 50 316 0.0 0.0 0.00 0.00 0.00 99 1018.2
20260901065643 50 316 0.0 0.0 0.00 0.00 0.00 99 1018.0
20260901065138 50 316 0.0 0.0 0.00 0.00 0.00 99 1018.2
20260901064635 50 316 0.0 0.0 0.00 0.00 0.00 99 1018.1
20260901064132 51 316 0.0 0.0 0.00 0.00 0.00 99 1018.0
20260901063629 51 316 0.0 0.0 0.00 0.00 0.00 99 1018.1
20260901063124 51 316 0.0 0.0 0.00 0.00 0.00 99 1018.1
20260901062619 50 315 0.0 0.0 0.00 0.00 0.00 99 1018.2
20260901062115 51 313 0.0 0.0 0.00 0.00 0.00 99 1018.4
20260901061611 51 314 0.0 0.0 0.00 0.00 0.00 99 1018.3
20260901061105 51 313 0.0 0.0 0.00 0.00 0.00 99 1018.2
20260901060600 51 310 0.0 0.0 0.00 0.00 0.00 99 1018.4
20260901060056 51 311 0.0 0.0 0.00 0.00 0.00 99 1018.5
20260901055551 52 315 0.0 0.0 0.00 0.00 0.00 99 1018.3
20260901055048 51 311 0.0 0.0 0.00 0.00 0.00 99 1018.4
20260901054544 51 307 0.0 0.0 0.00 0.00 0.00 99 1018.5
20260901054040 51 319 0.0 0.0 0.00 0.00 0.00 99 1018.6
20260901053536 51 318 0.0 0.0 0.00 0.00 0.00 99 1018.4
20260901053032 51 320 0.0 0.0 0.00 0.00 0.00 99 1018.6
20260901052532 51 322 0.0 0.0 0.00 0.00 0.00 99 1018.3
20260901052031 51 322 0.0 0.0 0.00 0.00 0.00 99 1018.4
20260901051526 51 322 0.0 0.0 0.00 0.00 0.00 99 1018.4
20260901051025 51 322 0.0 0.0 0.00 0.00 0.00 99 1018.2
20260901050521 51 322 0.0 0.0 0.00 0.00 0.00 99 1018.4
20260901050017 51 322 0.0 0.0 0.00 0.00 0.00 99 1018.3
20260901045512 51 322 0.0 0.0 0.00 0.00 0.00 99 1018.4
20260901045012 51 322 0.0 0.0 0.00 0.00 0.00 99 1018.2
20260901044508 51 322 0.0 0.0 0.00 0.00 0.00 99 1018.4
20260901044003 50 322 0.0 0.0 0.00 0.00 0.00 99 1018.3
20260901043459 51 322 0.0 0.0 0.00 0.00 0.00 99 1018.1
20260901042954 51 322 0.0 0.0 0.00 0.00 0.00 99 1018.2
20260901042453 51 322 0.0 0.0 0.00 0.00 0.00 99 1018.1
20260901041949 51 322 0.0 0.0 0.00 0.00 0.00 99 1018.1
20260901041443 51 322 0.0 0.0 0.00 0.00 0.00 99 1018.2
20260901040943 51 322 0.0 0.0 0.00 0.00 0.00 99 1018.2
20260901040433 51 322 0.0 0.0 0.00 0.00 0.00 99 1018.2